• In Netherlands
  • List of Countries
  • For 7 days
  • Water Temperature
  • Satellite Maps
  • Weather Map
  • Weather Widgets
  • user-avatar
    Login

    Hourly Weather Baranovichi

    Today, 24 May, Wednesday

    Time Temperature Precipitation Wind Pressure Humidity
    00:00 +12°C° 0 mm 1 mps 744 mmHg 81%
    01:00 +12°C° 0 mm 1 mps 744 mmHg 82%
    02:00 +12°C° 0 mm 2 mps 744 mmHg 85%
    03:00 +12°C° 0 mm 1 mps 744 mmHg 85%
    04:00 +12°C° 0 mm 1 mps 744 mmHg 85%
    05:00 +11°C° 0 mm 1 mps 743 mmHg 85%
    06:00 +13°C° 0 mm 1 mps 743 mmHg 76%
    07:00 +15°C° 0 mm 1 mps 743 mmHg 67%
    08:00 +18°C° 0 mm 1 mps 743 mmHg 56%
    09:00 +19°C° 0 mm 1 mps 743 mmHg 51%
    10:00 +21°C° 0 mm 1 mps 743 mmHg 47%
    11:00 +22°C° 0 mm 1 mps 743 mmHg 43%
    12:00 +23°C° 0 mm 1 mps 743 mmHg 42%
    13:00 +23°C° 0 mm 1 mps 743 mmHg 41%
    14:00 +24°C° 0 mm 1 mps 743 mmHg 39%
    15:00 +23°C° 0 mm 1 mps 742 mmHg 43%
    16:00 +23°C° 0 mm 1 mps 742 mmHg 47%
    17:00 +22°C° 0 mm 1 mps 742 mmHg 50%
    18:00 +20°C° 0.1 mm 1 mps 742 mmHg 61%
    19:00 +18°C° 0.1 mm 1 mps 742 mmHg 71%
    20:00 +15°C° 0.1 mm 1 mps 741 mmHg 81%
    21:00 +14°C° 0.4 mm 1 mps 742 mmHg 85%
    22:00 +14°C° 0.4 mm 1 mps 742 mmHg 89%
    23:00 +13°C° 0.4 mm 1 mps 742 mmHg 93%

    Tomorrow, 25 May, Thursday

    Time Temperature Precipitation Wind Pressure Humidity
    00:00 +13°C° 0.1 mm 1 mps 742 mmHg 93%
    01:00 +13°C° 0.1 mm 1 mps 742 mmHg 93%
    02:00 +13°C° 0.1 mm 1 mps 742 mmHg 93%
    03:00 +13°C° 0 mm 1 mps 742 mmHg 93%
    04:00 +12°C° 0 mm 1 mps 742 mmHg 93%
    05:00 +12°C° 0 mm 1 mps 742 mmHg 93%
    06:00 +13°C° 0 mm 2 mps 743 mmHg 89%
    07:00 +14°C° 0 mm 2 mps 743 mmHg 85%
    08:00 +16°C° 0 mm 2 mps 743 mmHg 81%
    09:00 +17°C° 0 mm 2 mps 743 mmHg 71%
    10:00 +18°C° 0 mm 2 mps 744 mmHg 60%
    11:00 +20°C° 0 mm 2 mps 744 mmHg 50%
    12:00 +20°C° 0 mm 2 mps 744 mmHg 47%
    13:00 +21°C° 0 mm 3 mps 744 mmHg 45%
    14:00 +21°C° 0 mm 3 mps 744 mmHg 42%
    15:00 +21°C° 0 mm 3 mps 743 mmHg 44%
    16:00 +21°C° 0 mm 3 mps 743 mmHg 45%
    17:00 +21°C° 0 mm 2 mps 743 mmHg 47%
    18:00 +19°C° 0 mm 2 mps 743 mmHg 56%
    19:00 +16°C° 0 mm 2 mps 743 mmHg 66%
    20:00 +14°C° 0 mm 2 mps 743 mmHg 75%
    21:00 +13°C° 0 mm 2 mps 743 mmHg 79%
    22:00 +12°C° 0 mm 2 mps 743 mmHg 83%
    23:00 +10°C° 0 mm 2 mps 743 mmHg 87%

    Day after tomorrow, 26 May, Friday

    Time Temperature Precipitation Wind Pressure Humidity
    00:00 +10°C° 0 mm 2 mps 743 mmHg 89%
    01:00 +10°C° 0 mm 1 mps 743 mmHg 91%
    02:00 +10°C° 0 mm 1 mps 743 mmHg 93%
    03:00 +9°C° 0 mm 2 mps 743 mmHg 93%
    04:00 +9°C° 0 mm 2 mps 744 mmHg 92%
    05:00 +9°C° 0 mm 2 mps 744 mmHg 92%
    06:00 +12°C° 0 mm 2 mps 744 mmHg 84%
    07:00 +13°C° 0 mm 2 mps 744 mmHg 76%
    08:00 +15°C° 0 mm 2 mps 744 mmHg 67%
    09:00 +16°C° 0 mm 2 mps 744 mmHg 63%
    10:00 +18°C° 0 mm 3 mps 744 mmHg 58%
    11:00 +19°C° 0 mm 3 mps 744 mmHg 53%
    12:00 +19°C° 0.2 mm 3 mps 744 mmHg 52%
    13:00 +20°C° 0.2 mm 3 mps 744 mmHg 52%
    14:00 +20°C° 0.2 mm 3 mps 744 mmHg 51%
    15:00 +20°C° 0.2 mm 3 mps 744 mmHg 53%
    16:00 +20°C° 0.2 mm 2 mps 744 mmHg 54%
    17:00 +19°C° 0.2 mm 2 mps 743 mmHg 56%
    18:00 +17°C° 0.1 mm 2 mps 743 mmHg 64%
    19:00 +15°C° 0.1 mm 2 mps 743 mmHg 73%
    20:00 +13°C° 0.1 mm 1 mps 743 mmHg 82%
    21:00 +13°C° 0.1 mm 1 mps 743 mmHg 84%
    22:00 +12°C° 0.1 mm 1 mps 744 mmHg 87%
    23:00 +11°C° 0.1 mm 1 mps 744 mmHg 89%

    27 May, Saturday

    Time Temperature Precipitation Wind Pressure Humidity
    00:00 +10°C° 0.1 mm 2 mps 744 mmHg 91%
    01:00 +10°C° 0.1 mm 2 mps 744 mmHg 92%
    02:00 +10°C° 0.1 mm 2 mps 744 mmHg 93%
    03:00 +10°C° 0 mm 2 mps 744 mmHg 94%
    04:00 +9°C° 0 mm 3 mps 744 mmHg 96%
    05:00 +9°C° 0 mm 3 mps 744 mmHg 97%
    06:00 +10°C° 0 mm 3 mps 745 mmHg 91%
    07:00 +11°C° 0 mm 3 mps 745 mmHg 86%
    08:00 +12°C° 0 mm 4 mps 746 mmHg 81%
    09:00 +13°C° 0 mm 4 mps 746 mmHg 73%
    10:00 +15°C° 0 mm 4 mps 746 mmHg 64%
    11:00 +16°C° 0 mm 5 mps 746 mmHg 55%
    12:00 +16°C° 0 mm 5 mps 747 mmHg 55%
    13:00 +17°C° 0 mm 5 mps 747 mmHg 54%
    14:00 +17°C° 0 mm 6 mps 747 mmHg 53%
    15:00 +16°C° 0 mm 5 mps 747 mmHg 54%
    16:00 +16°C° 0 mm 5 mps 747 mmHg 54%
    17:00 +16°C° 0 mm 5 mps 748 mmHg 55%
    18:00 +14°C° 0 mm 4 mps 748 mmHg 61%
    19:00 +13°C° 0 mm 3 mps 748 mmHg 67%
    20:00 +12°C° 0 mm 2 mps 749 mmHg 74%
    21:00 +10°C° 0 mm 2 mps 749 mmHg 78%
    22:00 +9°C° 0 mm 2 mps 750 mmHg 83%
    23:00 +8°C° 0 mm 2 mps 750 mmHg 87%

    28 May, Sunday

    Time Temperature Precipitation Wind Pressure Humidity
    00:00 +7°C° 0 mm 2 mps 750 mmHg 88%
    01:00 +7°C° 0 mm 1 mps 750 mmHg 90%
    02:00 +6°C° 0 mm 1 mps 751 mmHg 91%
    03:00 +7°C° 0 mm 1 mps 751 mmHg 86%
    04:00 +8°C° 0 mm 1 mps 751 mmHg 81%
    05:00 +9°C° 0 mm 1 mps 751 mmHg 76%
    06:00 +9°C° 0.1 mm 1 mps 752 mmHg 76%
    07:00 +9°C° 0.1 mm 1 mps 752 mmHg 76%
    08:00 +8°C° 0.1 mm 0 mps 752 mmHg 75%
    09:00 +10°C° 0.1 mm 1 mps 752 mmHg 73%
    10:00 +11°C° 0.1 mm 1 mps 752 mmHg 71%
    11:00 +11°C° 0.1 mm 1 mps 752 mmHg 69%
    12:00 +12°C° 0 mm 1 mps 752 mmHg 67%
    13:00 +13°C° 0 mm 1 mps 751 mmHg 65%
    14:00 +13°C° 0 mm 2 mps 751 mmHg 63%
    15:00 +14°C° 0 mm 2 mps 751 mmHg 62%
    16:00 +15°C° 0 mm 2 mps 750 mmHg 60%
    17:00 +16°C° 0 mm 1 mps 750 mmHg 58%
    18:00 +14°C° 0 mm 1 mps 750 mmHg 67%
    19:00 +12°C° 0 mm 1 mps 750 mmHg 77%
    20:00 +10°C° 0 mm 0 mps 749 mmHg 87%
    21:00 +11°C° 0 mm 1 mps 749 mmHg 86%
    22:00 +11°C° 0 mm 1 mps 749 mmHg 85%
    23:00 +10°C° 0 mm 2 mps 749 mmHg 84%

    29 May, Monday

    Time Temperature Precipitation Wind Pressure Humidity
    00:00 +10°C° 0 mm 2 mps 749 mmHg 86%
    01:00 +9°C° 0 mm 2 mps 749 mmHg 88%
    02:00 +9°C° 0 mm 2 mps 748 mmHg 91%
    03:00 +9°C° 0 mm 2 mps 748 mmHg 93%
    04:00 +10°C° 0 mm 2 mps 747 mmHg 94%
    05:00 +10°C° 0 mm 2 mps 747 mmHg 96%
    06:00 +13°C° 0 mm 2 mps 747 mmHg 90%
    07:00 +15°C° 0 mm 2 mps 747 mmHg 84%
    08:00 +18°C° 0 mm 3 mps 746 mmHg 78%
    09:00 +19°C° 0.2 mm 3 mps 746 mmHg 72%
    10:00 +21°C° 0.2 mm 4 mps 745 mmHg 66%
    11:00 +23°C° 0.2 mm 5 mps 745 mmHg 61%
    12:00 +23°C° 0.2 mm 5 mps 744 mmHg 57%
    13:00 +25°C° 0.2 mm 5 mps 744 mmHg 53%
    14:00 +25°C° 0.2 mm 5 mps 743 mmHg 49%
    15:00 +25°C° 0 mm 4 mps 743 mmHg 50%
    16:00 +25°C° 0 mm 4 mps 742 mmHg 50%
    17:00 +25°C° 0 mm 3 mps 742 mmHg 51%
    18:00 +22°C° 0 mm 3 mps 741 mmHg 56%
    19:00 +21°C° 0 mm 3 mps 741 mmHg 60%
    20:00 +19°C° 0 mm 2 mps 740 mmHg 65%
    21:00 +18°C° 0.1 mm 2 mps 740 mmHg 69%
    22:00 +17°C° 0.1 mm 2 mps 740 mmHg 73%
    23:00 +16°C° 0.1 mm 2 mps 740 mmHg 76%
    Show more